Wind_Speed
21 21 21 23 23 21 22 24 25 26 29 32 32 31 30 30 28 25 24 23 21 20 20 19 18 18 18 18 17 16 16 17 16 16 17 17 17 16 16 17 18 17 17 18 18 18 18 19 20 21 20 19 17 17 16 15 14 13 13 12 12 11 11 10 9 11 13 14 16 17 20 22 21 21 24 26 26 26 25 23 23 23 22 22 23
19 20 22 22 19 21 26 28 29 30 31 32 32 31 30 29 27 25 25 23 21 20 20 19 19 19 19 18 17 17 17 17 17 17 17 17 17 17 17 18 19 19 18 19 19 20 20 20 20 20 20 19 18 17 16 14 14 14 13 12 12 12 11 12 11 12 15 16 18 19 19 22 22 22 25 27 27 27 26 25 24 23 22 23 24
19 17 19 19 17 22 29 32 33 33 32 33 32 31 29 27 26 25 25 23 21 20 19 19 19 19 19 18 18 18 18 18 17 17 17 17 18 19 19 21 21 20 19 19 19 19 19 19 18 17 17 17 16 15 14 13 13 13 12 13 13 12 13 15 14 14 15 17 20 21 21 22 22 22 25 26 27 27 26 25 25 24 24 24 24
16 15 17 18 19 25 30 33 34 34 34 33 32 30 28 26 25 24 24 23 21 20 19 18 18 18 19 19 19 18 18 18 17 17 17 18 20 21 21 22 22 21 20 20 18 17 17 16 15 14 14 14 14 14 14 13 13 13 13 13 13 13 14 16 16 16 17 18 20 21 22 23 22 23 25 27 27 26 25 25 25 24 25 25 24
15 17 21 24 24 26 30 32 33 34 34 33 31 28 27 25 23 23 23 22 22 21 19 18 18 19 20 20 20 19 19 18 17 17 18 20 22 23 22 23 23 22 21 20 18 16 15 14 13 13 13 14 14 14 15 14 14 15 14 14 13 13 14 16 15 16 17 18 20 21 22 22 22 23 25 27 27 26 25 25 25 25 26 26 25
19 23 26 28 28 27 30 31 32 32 33 32 30 28 26 24 23 23 22 22 22 21 19 19 19 20 21 20 20 19 18 18 18 19 20 22 24 24 23 23 22 22 20 19 17 15 13 13 12 13 13 14 14 14 14 15 15 15 14 14 14 14 14 15 15 16 17 17 19 21 22 23 23 23 25 26 26 26 27 27 26 26 27 26 27
25 27 29 30 30 29 30 31 31 31 31 30 28 27 25 24 23 22 21 21 21 21 21 21 21 21 21 20 19 18 18 19 20 21 23 24 25 24 23 22 21 20 19 17 16 15 13 12 12 13 15 15 16 16 15 14 14 15 15 14 15 16 15 16 16 16 16 17 20 21 22 22 23 23 24 24 24 24 26 28 27 28 28 28 28
28 31 32 29 27 29 31 32 31 31 30 28 27 25 24 23 22 22 21 21 21 22 22 23 22 22 21 19 18 18 20 22 23 24 25 25 25 23 22 20 19 19 18 17 16 16 14 13 12 14 15 16 17 18 19 16 14 14 16 16 17 17 17 16 16 16 17 18 20 21 21 21 22 23 24 25 25 25 26 26 26 27 29 28 27
30 33 32 25 24 29 32 32 32 30 29 27 25 24 23 22 22 21 21 21 22 23 23 23 24 23 20 19 19 21 23 24 25 25 25 25 24 23 21 20 18 18 17 17 16 16 15 14 14 14 15 16 17 19 21 20 18 16 17 18 18 18 17 17 16 17 18 19 20 20 20 21 23 25 26 26 26 26 26 25 24 26 27 26 25
30 31 26 22 26 32 33 32 32 30 28 27 25 24 23 22 22 21 20 21 23 24 25 25 24 23 21 21 23 25 25 25 24 23 23 24 23 22 21 19 17 16 15 15 14 14 14 14 14 15 15 15 17 18 20 20 20 20 20 21 20 19 18 17 16 17 19 20 20 20 19 20 22 23 24 25 24 24 25 25 25 25 25 24 23
29 25 21 24 31 35 34 32 31 29 28 27 26 24 23 22 21 21 22 23 25 26 26 25 24 22 22 25 27 27 26 25 23 22 22 22 23 22 20 19 17 15 14 13 13 13 13 15 16 16 16 15 16 17 18 18 20 20 20 20 21 21 20 18 16 16 18 19 19 19 18 18 20 21 22 24 24 24 25 24 24 25 25 23 22
30 24 22 25 30 35 36 34 32 30 28 27 26 24 22 21 21 23 24 26 27 27 26 25 23 23 25 27 28 28 26 24 23 22 21 21 21 21 20 18 17 16 15 14 13 13 13 15 17 17 16 15 15 16 16 18 20 21 20 19 19 19 19 17 15 14 16 17 17 17 17 18 19 20 22 23 24 24 24 23 24 25 24 22 22
33 28 24 22 24 31 34 33 33 31 29 28 26 24 22 22 23 25 27 28 28 27 26 24 23 25 28 28 28 28 26 23 22 21 20 20 20 20 19 18 18 17 16 15 14 13 13 13 15 16 16 16 17 16 16 17 19 20 19 18 18 18 17 17 16 14 14 15 15 16 16 16 17 19 20 21 22 23 23 24 25 25 24 23 24
28 25 22 20 24 31 33 33 32 31 30 29 26 24 23 23 25 27 28 28 28 28 26 24 25 28 29 29 28 27 25 22 21 20 19 18 18 18 18 18 17 17 16 16 15 15 15 14 14 15 15 16 17 17 16 16 16 17 17 16 16 17 18 17 17 16 14 13 13 14 14 14 15 16 17 18 19 20 21 23 24 25 25 24 22
24 23 22 21 25 30 33 33 32 31 30 29 27 26 25 25 27 28 28 29 29 28 26 26 28 30 30 29 29 27 24 21 19 18 18 17 17 17 17 16 16 16 15 15 15 15 16 15 15 15 15 16 17 17 16 15 14 14 15 15 15 16 17 17 17 17 15 14 13 13 13 14 14 15 16 17 16 16 18 20 21 21 22 21 21
24 23 22 23 26 30 33 33 32 32 31 29 28 27 27 27 28 28 29 29 29 28 27 28 31 32 31 30 28 26 23 20 18 17 17 16 16 16 15 15 15 15 14 14 14 13 14 14 14 14 15 16 16 17 16 14 13 13 14 14 14 15 17 17 17 17 17 17 16 16 16 18 19 19 20 21 18 15 15 18 19 20 22 22 21
23 22 21 25 30 32 33 33 33 33 32 30 29 28 27 27 28 29 30 31 30 28 28 30 32 32 31 29 27 26 23 20 18 17 16 15 15 15 14 14 14 14 13 13 13 13 13 13 13 14 15 16 16 16 16 15 13 13 13 13 13 14 17 18 17 17 18 18 19 20 21 21 23 23 23 24 23 18 16 19 21 22 22 22 21
22 22 23 27 31 32 32 32 33 34 33 31 30 28 28 28 28 30 32 31 30 29 30 31 31 31 30 28 26 25 23 20 17 16 15 14 14 14 13 13 13 13 12 13 13 13 12 12 12 13 14 14 14 14 15 15 15 14 13 13 13 15 16 18 18 17 18 20 20 22 23 23 25 25 25 27 27 23 19 18 20 20 21 21 21
21 22 26 31 33 33 32 32 34 35 33 31 31 29 29 29 29 31 32 32 30 30 30 30 29 28 28 27 25 24 22 19 17 15 13 12 12 12 11 11 12 11 10 11 12 12 12 11 12 12 11 12 12 12 13 14 15 15 13 12 13 14 15 16 16 16 17 18 18 20 21 23 25 25 25 27 28 26 23 19 17 19 19 20 21
21 22 28 33 33 32 33 34 35 35 33 32 31 30 30 29 30 32 32 32 31 30 30 30 29 27 27 25 24 22 20 19 17 14 13 11 11 10 10 10 10 10 9 9 9 9 10 10 11 10 9 9 10 10 11 12 13 14 13 13 12 13 14 13 13 14 14 14 14 15 17 19 20 21 22 24 26 27 26 22 19 17 17 19 21
23 25 30 33 33 33 33 34 35 34 33 32 31 30 29 29 31 33 33 32 31 31 31 30 29 27 26 24 22 21 19 18 16 14 12 11 9 9 9 9 10 9 8 8 7 7 8 8 9 9 8 7 8 8 9 10 11 11 12 12 12 12 13 12 10 11 11 11 11 12 14 15 17 18 20 21 24 26 26 24 21 18 16 15 17
25 29 33 34 33 33 34 34 34 33 33 32 31 30 29 29 31 33 33 32 32 32 31 30 28 26 25 23 21 20 19 17 15 14 12 10 9 9 8 8 9 8 7 7 6 6 7 7 7 8 7 7 6 7 7 8 9 9 10 10 10 10 11 10 10 9 9 10 11 11 14 16 16 17 19 20 23 26 25 24 23 21 18 16 15
28 32 34 34 34 34 34 34 35 34 32 31 30 29 29 30 32 33 33 33 32 31 29 28 26 24 23 22 21 21 19 17 15 13 12 10 9 9 8 7 8 7 7 6 6 6 6 6 6 7 7 7 5 5 6 6 7 8 8 8 9 9 9 9 10 9 9 11 12 12 14 16 16 17 19 21 23 25 25 24 24 23 20 18 16
33 35 35 34 34 34 33 34 34 33 31 30 29 29 29 30 31 33 33 32 30 27 25 25 23 21 20 20 21 21 20 17 15 13 12 11 10 9 8 7 7 6 6 5 6 5 5 5 5 5 6 6 6 5 5 6 6 7 7 7 8 9 9 9 9 9 9 11 12 13 14 15 16 17 19 21 23 24 25 25 24 25 24 20 15
34 34 35 35 34 34 34 34 33 32 31 29 28 29 30 30 30 31 31 30 27 24 21 21 20 18 17 18 20 21 21 19 16 14 12 11 10 9 8 7 6 6 6 5 5 5 4 4 4 4 5 5 5 5 5 6 6 6 6 7 8 8 9 9 9 10 10 11 12 13 13 14 16 18 20 21 21 21 24 25 22 23 26 23 16
32 33 34 34 34 35 34 33 33 32 30 27 27 29 30 30 29 28 27 26 25 22 20 19 18 17 17 17 19 21 21 19 16 14 13 11 10 10 9 8 6 6 5 5 5 4 4 3 3 4 4 3 3 4 5 6 6 6 7 7 8 8 9 10 10 10 11 11 12 13 13 14 16 19 21 20 18 18 24 25 21 20 23 21 16
30 31 31 32 33 34 34 34 33 31 29 27 27 28 29 30 29 26 23 23 22 21 20 19 18 18 17 17 19 20 20 18 16 15 14 12 11 10 10 9 7 6 5 5 4 4 3 3 2 3 4 3 3 3 4 5 6 7 7 6 7 9 9 10 10 11 12 12 12 12 14 14 15 17 19 17 16 19 24 23 19 19 20 18 16
30 29 29 30 31 33 34 33 31 30 29 28 27 26 27 29 29 27 25 26 26 24 21 20 19 19 19 19 19 18 17 16 15 15 15 13 12 11 10 9 8 7 5 4 3 2 2 1 1 2 3 3 3 3 3 4 4 6 6 6 6 8 9 9 10 10 12 14 14 13 14 15 15 16 17 16 16 19 23 22 20 19 19 17 16
29 28 29 30 31 33 34 33 31 30 29 27 27 27 28 29 29 28 29 31 30 28 26 24 23 22 22 21 19 17 15 15 16 16 15 14 12 11 10 9 8 7 6 4 2 2 1 1 1 1 1 2 2 2 3 3 4 4 6 6 6 7 8 8 8 9 12 14 14 14 15 16 16 17 17 18 17 17 20 22 21 18 18 17 17
27 27 29 30 32 33 31 31 32 32 29 27 26 26 27 28 29 29 29 28 28 27 26 25 25 24 23 23 21 18 16 17 17 16 14 13 11 10 9 8 7 7 5 4 3 2 2 2 2 2 2 1 2 2 3 4 4 4 6 6 7 7 8 8 8 10 13 14 14 15 16 16 16 17 17 19 19 18 18 20 19 17 17 17 17
28 25 26 30 33 31 28 28 31 31 29 28 26 23 22 23 25 26 26 25 24 23 21 20 20 20 21 22 22 18 16 17 17 16 14 13 11 10 8 7 6 6 5 5 4 3 2 2 2 2 2 2 2 2 3 4 4 5 5 5 6 7 7 8 10 12 14 14 14 15 15 15 16 17 17 19 20 19 18 18 18 18 17 17 17
29 23 25 31 33 30 28 29 30 29 27 27 26 23 19 18 18 20 23 23 22 20 19 17 16 17 17 17 18 18 17 17 17 16 14 13 11 10 9 7 6 6 5 5 5 3 3 3 2 2 2 3 3 3 4 4 4 4 5 5 6 7 6 8 11 13 14 14 14 14 15 16 18 19 18 18 18 18 18 18 18 19 18 18 18
32 27 29 33 31 28 30 32 31 29 27 26 25 23 21 18 15 16 19 20 20 19 18 15 14 14 15 14 14 16 17 17 18 17 15 13 11 11 10 8 7 6 6 6 5 4 3 3 3 2 2 3 3 4 4 4 4 4 5 5 6 6 7 8 10 11 12 13 14 14 15 17 18 18 17 17 16 16 16 17 17 18 18 18 19
36 33 34 34 29 26 29 31 30 29 29 29 27 25 22 19 17 16 16 17 16 16 16 14 12 12 13 13 13 14 16 18 18 17 14 13 12 11 10 9 8 8 8 7 6 5 4 4 4 3 3 3 4 4 4 4 4 4 5 5 5 6 7 9 9 10 11 12 13 13 14 16 17 17 17 17 16 15 16 16 16 17 17 17 18
35 33 34 34 31 29 29 31 31 31 30 31 31 28 24 22 21 19 16 15 15 14 14 14 12 10 11 12 13 15 17 19 18 16 14 12 11 10 9 9 8 8 9 9 8 6 5 5 5 4 4 4 4 4 4 4 4 4 5 5 6 7 7 8 9 10 12 13 13 14 15 16 16 17 17 17 15 14 15 15 15 16 16 16 17
33 32 32 33 33 33 33 33 33 33 33 33 32 30 28 26 24 20 17 16 15 13 13 14 13 11 11 12 14 17 19 19 17 14 13 11 11 10 9 8 8 7 7 8 7 7 7 6 6 5 5 5 5 5 5 5 5 5 6 6 7 8 9 9 10 12 14 15 15 16 17 17 17 17 18 17 16 14 14 15 17 17 17 17 18
33 33 32 32 33 34 34 34 34 33 33 33 33 32 30 28 25 21 17 17 15 14 15 17 16 14 13 14 16 19 20 18 15 14 12 11 10 10 9 8 7 7 6 6 6 6 6 6 6 6 6 6 6 6 6 7 7 7 7 8 9 10 11 11 12 13 14 15 16 17 18 18 19 19 19 18 17 16 16 16 18 19 20 21 19
33 33 33 34 34 34 34 33 32 32 32 32 33 31 29 27 25 22 19 18 18 16 17 19 19 17 15 16 18 21 21 18 16 14 13 12 11 10 9 9 8 7 6 6 6 7 7 6 7 7 7 7 8 8 8 8 8 8 9 10 11 12 13 13 14 15 16 16 17 17 18 19 19 19 19 20 21 21 20 21 21 20 20 20 17
30 31 32 34 34 34 34 33 32 31 32 32 31 30 29 28 25 23 20 19 19 18 18 20 20 17 16 18 22 23 20 18 16 14 13 13 12 11 10 9 9 8 8 7 8 9 9 8 8 9 9 9 10 10 10 10 10 10 11 12 13 14 15 15 16 17 18 18 19 20 21 22 22 22 22 22 22 21 23 25 25 22 20 19 18
29 30 31 33 33 33 33 34 34 33 33 31 30 29 29 28 26 24 22 20 19 19 19 20 20 19 18 20 24 25 21 17 15 14 14 14 13 12 11 10 9 9 10 10 10 11 10 10 10 11 11 11 11 11 12 12 12 13 14 15 16 17 18 18 19 21 22 22 23 24 25 25 25 25 24 22 20 20 22 25 25 23 21 21 21
31 32 32 31 31 31 31 33 33 33 33 32 30 29 28 28 26 24 22 21 21 21 21 20 20 20 20 20 23 25 21 16 15 16 15 14 14 12 11 11 10 11 12 12 12 12 12 12 12 12 12 13 13 13 14 14 15 15 16 17 18 20 21 21 22 23 24 25 26 26 26 26 26 24 23 22 21 22 21 21 20 20 20 19 19
31 32 32 31 30 30 30 31 31 31 31 31 30 29 28 27 26 24 22 22 21 21 21 20 19 19 19 19 21 23 20 16 16 17 17 16 15 14 13 13 13 13 13 13 13 14 13 13 12 13 13 13 14 15 15 16 16 17 18 19 20 21 22 22 22 23 23 24 25 25 25 25 23 22 21 21 21 20 20 19 19 19 18 18 17
30 30 31 31 30 29 30 30 29 28 28 29 29 28 27 26 25 24 23 23 22 21 20 20 18 18 19 19 19 21 20 19 19 19 17 17 17 16 14 14 13 14 14 14 14 14 13 13 13 13 13 14 15 15 16 16 17 18 19 19 20 20 19 19 19 20 21 22 23 23 23 22 20 19 19 19 19 20 21 21 20 19 18 17 17
28 28 28 28 28 28 28 28 28 28 28 28 27 27 26 26 25 24 24 23 22 20 19 19 19 18 19 19 19 19 20 19 19 19 18 17 17 16 15 13 12 13 14 14 14 14 13 13 14 14 15 15 16 16 17 17 17 17 17 16 16 16 17 17 17 18 18 19 19 20 20 19 19 18 17 18 20 21 20 20 19 20 20 19 18
28 28 28 27 27 27 28 28 28 28 28 27 27 27 27 26 25 25 24 23 21 20 19 19 19 19 19 19 18 18 18 18 17 17 17 17 16 15 14 12 10 10 11 12 12 13 13 14 15 16 16 17 17 17 17 17 16 15 14 13 13 13 14 15 15 15 16 16 17 17 18 18 19 18 18 19 20 19 18 18 19 20 19 18 17
28 28 28 28 29 30 30 30 30 29 29 29 28 28 27 26 26 25 24 22 20 19 19 19 19 18 18 17 17 16 16 16 16 16 17 17 16 14 12 10 9 9 10 11 12 13 14 15 16 16 17 17 16 15 14 13 12 11 11 11 11 11 11 12 13 14 14 15 16 16 17 18 18 18 18 19 19 18 19 20 20 19 18 17 17
28 28 28 29 30 30 30 30 31 31 30 29 28 27 26 25 25 23 21 20 19 19 18 18 18 18 17 16 15 15 15 15 15 15 15 14 12 11 10 9 9 9 10 12 13 14 15 15 15 15 14 13 12 10 9 8 8 7 8 8 9 9 10 11 12 13 13 14 15 15 16 17 17 17 18 20 19 19 19 19 18 17 17 17 16
27 27 28 29 29 29 28 28 28 28 27 26 25 24 24 23 22 21 20 19 19 19 19 18 18 17 16 15 14 14 14 14 13 11 10 9 9 9 8 8 8 9 11 12 13 13 13 12 11 10 9 8 6 5 4 4 5 5 6 7 8 9 10 11 12 13 13 14 15 16 17 17 18 18 19 20 20 18 17 16 16 16 16 16 15
25 26 27 28 28 27 26 26 25 25 25 24 24 23 23 22 22 21 20 19 19 19 18 18 17 15 14 13 13 13 13 12 11 9 8 8 8 8 8 8 9 10 11 11 10 9 8 7 6 5 4 4 3 3 3 3 4 5 6 7 8 10 11 11 12 14 14 15 16 17 17 18 18 18 17 17 17 16 15 14 15 15 15 14 14
23 25 26 27 26 25 25 25 24 24 24 24 23 23 22 22 21 20 20 19 19 19 17 16 15 13 13 12 12 12 11 11 9 8 7 7 8 8 9 9 10 10 10 9 8 7 6 6 5 4 3 3 2 2 3 4 5 6 7 8 9 10 11 12 14 15 16 17 17 17 17 17 17 16 14 14 14 14 13 13 14 14 14 13 13
21 23 24 25 25 24 23 23 23 23 23 23 23 22 22 21 21 20 20 20 19 17 15 14 13 13 12 12 12 12 11 10 8 7 7 8 8 8 9 9 9 9 9 9 8 7 6 6 5 4 3 2 2 3 4 5 6 7 8 9 10 12 13 14 15 16 17 17 16 16 15 15 15 14 12 12 13 13 12 13 13 13 12 12 13
Wind_Direction
167 172 177 184 180 165 159 165 173 170 164 163 162 161 159 153 148 147 144 142 141 140 138 137 135 133 132 132 130 129 129 129 129 125 119 111 104 101 99 98 96 92 89 87 86 84 82 79 78 75 71 67 62 58 55 52 50 48 45 40 36 26 13 1 341 329 337 344 343 347 352 351 350 349 348 346 345 346 345 345 344 344 343 340 336
170 174 173 174 166 151 150 158 166 166 160 158 158 157 156 150 146 145 143 143 144 141 138 136 134 133 132 133 131 130 131 131 130 126 118 111 105 103 102 100 97 94 92 89 88 88 86 82 78 73 69 65 61 56 51 48 47 44 41 37 31 24 15 6 352 337 336 345 352 352 356 358 355 352 351 348 345 345 346 347 347 346 344 341 337
174 172 164 159 147 142 148 152 159 162 158 155 155 156 155 149 146 145 144 144 144 141 137 134 134 133 133 133 132 131 132 132 130 124 116 110 107 106 105 102 99 96 94 92 91 89 85 80 76 70 65 61 57 52 47 43 42 39 35 34 27 19 17 13 6 355 346 351 360 359 358 360 357 354 353 350 348 349 348 348 347 346 345 343 341
170 156 144 140 134 138 145 151 156 158 156 154 155 156 153 148 147 147 144 145 144 140 137 135 135 134 132 132 133 133 133 131 127 122 116 112 109 108 106 103 101 99 97 95 92 88 83 78 71 65 62 58 53 48 43 40 39 37 34 32 25 17 19 19 15 10 3 1 6 6 2 1 359 357 356 353 353 354 352 350 349 348 347 346 344
154 142 136 137 140 145 150 154 157 156 154 153 154 154 150 147 149 148 146 146 143 139 139 138 136 134 132 133 133 133 131 128 124 120 117 115 113 110 107 105 104 102 100 97 93 87 81 76 68 62 58 55 52 48 44 42 42 39 35 30 24 18 20 21 18 17 14 11 10 8 6 4 1 0 360 357 355 355 355 355 355 352 350 350 349
142 136 136 143 153 155 153 154 156 155 153 152 152 151 150 148 149 148 147 146 142 141 142 140 137 133 132 133 134 133 131 128 124 121 119 117 114 112 109 107 105 103 101 96 91 86 80 75 68 62 60 57 54 50 46 46 44 38 34 28 22 19 20 21 18 17 17 15 12 9 7 5 1 360 360 358 357 356 355 355 357 357 354 352 352
142 138 144 154 158 155 152 153 154 153 152 151 151 150 149 149 149 148 147 145 144 145 144 140 136 134 134 134 134 133 132 129 126 124 122 118 115 113 111 109 106 103 100 95 90 86 80 76 69 64 64 61 58 53 48 45 42 36 31 26 21 18 19 19 17 16 15 14 13 10 6 4 2 359 358 357 359 360 357 354 354 355 354 354 354
144 147 154 157 153 149 151 153 153 153 152 151 150 149 149 149 148 148 148 148 148 148 145 141 138 136 136 134 132 133 132 130 129 126 123 119 115 114 111 109 107 103 99 95 91 87 81 75 70 67 67 63 59 56 52 46 40 33 28 23 20 19 18 16 16 16 15 15 14 9 5 5 3 359 359 360 360 359 357 353 350 350 350 352 355
144 150 154 150 145 147 150 152 153 153 152 150 149 149 149 150 149 149 151 152 150 148 144 142 140 137 134 131 131 134 132 131 131 128 124 120 117 115 114 111 107 104 101 97 92 86 79 73 71 71 69 65 61 59 55 49 43 35 29 25 23 21 19 17 18 18 16 16 14 9 7 7 4 359 359 1 358 353 352 351 348 347 347 347 353
142 148 148 143 146 149 150 152 153 152 151 150 150 150 150 150 150 151 152 151 148 146 145 144 141 137 133 132 134 134 132 131 132 130 125 122 120 118 116 113 109 106 103 99 92 83 75 73 75 77 74 68 64 61 56 51 45 41 36 32 28 25 22 18 20 21 19 18 14 10 7 5 2 359 356 355 353 350 350 351 349 348 348 347 350
141 143 143 145 150 152 152 153 153 151 150 150 150 150 150 150 151 151 150 149 148 148 148 145 141 136 134 135 135 133 131 131 131 129 126 123 122 120 117 113 110 107 103 98 91 82 75 75 78 79 75 70 65 59 55 51 46 42 41 37 32 29 26 23 20 21 21 20 15 11 8 1 358 357 354 350 350 350 350 350 350 349 349 348 346
144 145 147 150 152 154 154 153 152 151 151 151 150 150 149 150 151 150 149 150 150 150 149 144 140 138 137 136 135 132 131 132 132 131 127 124 121 118 115 113 109 105 100 95 89 82 77 76 76 75 72 68 64 58 54 51 44 42 44 42 37 36 35 32 27 24 22 19 15 12 7 359 355 355 353 348 346 346 348 350 350 349 348 346 345
150 149 149 147 147 152 154 151 150 150 151 150 149 149 150 150 151 151 151 153 152 150 148 144 141 141 140 137 135 133 132 133 134 133 129 125 120 116 114 112 108 103 97 92 86 81 80 78 75 72 69 65 61 57 54 50 44 43 46 45 41 40 42 42 40 38 32 22 17 14 6 359 355 354 352 348 345 346 347 348 349 348 347 347 348
147 144 142 140 143 150 152 150 149 149 150 149 148 149 151 151 152 154 153 153 152 150 147 146 145 145 142 138 136 134 134 136 137 134 130 126 121 117 114 111 106 101 96 91 86 80 77 77 74 70 65 61 58 55 52 50 46 46 47 46 43 41 41 43 43 43 40 30 22 16 8 3 357 351 351 351 349 348 346 346 346 347 346 347 350
144 144 143 145 149 153 153 151 150 149 148 149 150 152 153 153 154 155 154 153 153 151 150 150 149 147 144 141 138 135 135 138 139 135 131 128 124 119 115 111 107 102 97 91 86 80 76 73 71 67 62 58 54 52 52 51 50 49 48 48 48 43 41 42 43 44 44 41 34 26 20 17 13 5 1 359 355 351 348 347 347 346 347 349 354
146 149 147 149 154 154 153 152 151 150 150 152 154 155 155 156 156 156 156 155 155 154 153 153 152 149 146 143 140 136 136 138 138 134 131 130 127 122 118 115 111 106 101 94 88 83 75 70 68 64 61 57 53 51 53 53 52 50 49 48 48 45 45 47 50 50 49 48 45 41 36 32 30 26 18 12 7 358 352 354 355 354 355 357 358
149 151 149 152 156 157 156 155 153 153 154 155 157 158 158 158 160 160 158 156 156 157 156 155 153 150 148 146 142 138 136 137 138 135 132 131 129 126 123 120 117 113 105 97 89 83 76 70 67 64 59 57 53 51 52 53 53 49 47 47 46 43 44 50 54 56 55 54 51 47 44 40 38 35 28 22 20 12 2 2 1 359 359 360 357
152 152 150 154 157 160 161 160 158 157 158 158 160 161 161 161 162 163 161 158 158 158 157 155 154 152 151 150 146 142 139 138 139 137 135 133 131 129 128 125 124 120 109 98 89 81 76 71 67 64 60 56 52 50 50 51 52 48 45 46 45 39 37 43 50 54 54 54 52 49 46 43 41 38 34 30 28 25 16 7 2 2 3 2 355
155 153 154 158 162 164 165 164 162 160 160 162 163 163 162 163 165 164 163 161 159 158 157 155 154 154 155 154 151 147 142 140 142 141 139 139 136 133 132 130 129 125 115 102 91 83 78 70 64 62 59 54 51 49 48 49 50 49 46 45 43 38 35 38 45 51 51 48 48 45 41 40 39 36 33 31 31 30 26 17 8 6 5 2 358
154 154 158 163 165 167 167 167 166 164 163 163 165 165 164 165 166 165 163 162 160 158 156 155 155 155 156 156 155 153 149 146 146 147 146 146 144 140 137 134 133 128 118 109 98 89 82 71 63 60 56 52 47 43 44 45 47 48 48 46 42 38 36 36 42 49 48 41 38 36 31 31 31 28 26 26 27 28 28 24 19 13 7 3 2
153 156 160 164 166 166 168 168 168 167 165 164 164 165 166 167 167 165 163 162 162 160 158 158 158 158 157 156 156 157 157 154 152 152 154 155 153 151 145 139 136 129 119 113 104 94 87 75 65 59 54 49 41 34 35 38 40 42 43 43 39 34 33 32 32 36 34 25 22 22 20 21 21 19 19 19 21 25 26 25 24 21 15 8 3
155 158 161 163 164 165 166 166 166 166 164 163 164 165 166 167 167 166 163 163 163 162 162 162 163 163 162 162 161 161 162 161 159 158 159 159 158 157 152 145 139 129 120 117 107 96 90 80 67 57 52 48 37 26 24 28 33 36 34 32 28 25 27 25 20 18 16 12 14 15 15 15 13 12 13 12 15 20 22 22 24 26 24 20 12
156 159 161 162 163 164 164 165 166 165 164 164 164 164 165 165 166 167 165 163 163 163 164 166 166 166 167 169 169 167 166 168 167 166 164 161 159 156 152 147 141 132 124 118 110 101 92 80 67 54 48 44 31 18 14 16 22 28 26 23 19 17 18 18 15 12 10 11 12 12 13 12 7 7 8 8 12 17 18 19 22 24 23 23 20
158 159 161 161 162 164 164 166 167 167 166 166 164 164 164 165 166 167 166 164 163 163 165 166 166 165 167 170 173 174 175 175 175 174 171 166 161 156 151 145 140 133 126 119 111 104 94 81 65 50 45 39 25 13 6 4 10 16 15 13 12 12 12 10 8 7 8 10 11 11 10 8 6 6 7 8 12 15 15 17 18 18 18 19 15
158 159 161 162 163 163 164 167 169 168 168 168 165 164 165 165 165 166 167 166 165 163 164 165 165 163 163 166 171 176 180 180 178 179 177 171 164 160 154 146 138 133 128 121 110 100 91 79 60 42 34 29 24 18 10 5 3 1 1 4 7 8 8 8 5 4 7 8 8 7 6 3 4 7 8 10 11 10 11 14 13 11 13 14 8
157 159 162 163 163 164 164 166 168 169 169 169 168 167 167 166 165 165 166 167 167 165 164 164 163 162 162 164 168 174 178 180 180 181 179 174 169 164 161 155 147 137 129 120 109 99 87 75 55 33 16 6 12 18 19 19 15 8 5 6 8 7 7 8 8 7 7 6 4 4 3 1 3 8 10 10 9 6 9 11 7 3 5 4 1
157 159 161 162 163 164 165 165 166 167 168 168 168 168 169 169 168 166 165 165 165 165 165 165 164 164 164 165 168 172 175 178 181 181 180 177 172 169 170 169 162 151 141 124 113 108 95 79 56 29 14 5 5 10 14 21 24 21 15 9 7 7 6 6 8 8 6 3 1 360 359 359 2 5 6 8 7 7 10 10 4 360 360 357 357
159 158 159 160 162 165 166 165 164 164 166 167 167 167 169 171 171 170 171 171 169 168 168 169 169 170 169 168 169 171 175 178 181 182 180 178 175 173 175 178 175 170 164 148 131 126 112 100 75 24 19 18 18 17 16 21 24 23 20 12 4 2 2 3 3 3 2 1 358 356 356 358 360 1 2 4 5 5 9 10 5 359 359 359 1
158 157 159 161 163 165 166 165 164 164 165 166 168 170 173 175 175 176 179 180 179 177 176 176 177 177 175 174 174 174 177 182 185 183 181 178 177 176 177 180 182 181 177 168 158 165 184 207 221 277 356 9 19 26 24 19 18 19 19 16 9 3 0 360 356 353 356 359 359 357 356 357 359 359 360 1 360 359 3 6 4 360 359 2 4
156 157 160 163 165 166 164 164 166 167 166 165 166 169 174 178 180 181 182 184 186 185 184 185 186 186 184 184 183 182 183 185 184 182 179 178 177 178 178 178 177 177 181 187 188 193 209 225 242 258 277 320 350 1 2 3 5 7 10 11 11 8 5 2 358 355 357 359 358 358 358 357 358 359 359 358 357 356 358 360 359 358 358 359 0
158 158 161 164 167 166 164 164 166 166 166 167 165 163 166 174 180 182 184 185 188 190 191 192 193 194 193 193 193 193 191 188 185 182 180 179 180 181 181 178 173 173 183 193 195 202 221 234 248 256 260 288 307 314 327 337 342 350 357 359 1 4 3 2 3 4 3 1 359 358 358 357 356 356 356 356 356 356 356 357 358 358 357 357 356
160 159 162 167 169 168 167 166 167 166 165 165 165 162 160 163 172 180 184 186 187 189 191 191 193 196 199 199 200 199 193 188 188 187 183 183 185 186 185 182 179 181 191 197 198 206 223 235 261 276 271 288 295 294 309 321 323 333 342 345 349 354 354 354 359 3 2 360 357 356 356 355 354 353 352 352 352 352 353 355 357 357 355 354 353
164 163 166 167 169 170 171 171 170 169 167 166 166 164 163 163 164 169 179 185 187 189 189 188 188 193 198 202 206 203 194 189 187 186 185 186 189 190 189 188 189 193 199 203 207 217 229 241 266 284 282 292 299 295 300 310 315 322 328 328 334 340 341 343 349 352 350 350 350 349 347 348 348 347 346 346 345 346 347 349 352 353 353 353 351
170 170 171 170 169 171 172 172 172 172 171 171 171 169 169 170 168 164 168 177 184 190 193 193 188 186 191 195 197 196 193 188 184 182 186 190 192 193 194 196 200 206 209 214 222 233 240 248 262 275 281 293 300 298 298 303 308 316 319 320 323 326 330 335 338 337 336 338 339 338 339 342 342 340 340 341 341 342 343 344 345 347 348 347 347
173 173 174 174 174 174 175 176 176 175 175 176 177 176 176 176 176 173 170 173 177 182 191 196 192 182 182 185 183 182 184 182 180 183 188 191 192 194 196 199 204 211 217 224 231 238 245 251 257 266 275 284 291 296 300 301 305 310 313 315 318 319 322 327 328 328 332 334 334 335 338 340 340 338 337 335 334 334 336 338 339 339 339 338 339
174 174 175 177 180 181 181 180 180 180 180 179 180 182 183 183 183 182 180 181 180 178 185 194 192 181 177 181 180 177 177 178 182 186 189 190 193 195 196 198 202 206 214 224 230 237 246 253 257 262 269 277 285 292 297 299 302 307 310 312 315 316 318 321 324 327 332 334 333 336 339 339 339 339 337 333 330 328 328 330 333 334 333 333 333
177 176 176 179 183 184 183 183 184 184 184 182 183 185 187 189 189 188 187 188 187 182 184 189 187 178 176 180 179 176 177 181 187 190 189 191 195 198 200 205 208 210 215 220 225 235 244 250 256 262 266 273 279 284 291 297 300 305 312 315 314 314 316 319 322 327 331 332 332 335 337 336 337 338 335 331 328 326 324 326 329 329 329 330 330
183 183 184 185 185 184 182 183 183 183 182 182 184 186 188 191 193 193 194 195 194 189 185 186 185 181 179 181 181 181 182 188 193 195 195 195 198 202 208 213 217 222 226 225 228 240 247 251 259 266 269 274 281 284 290 295 298 302 309 312 313 315 318 319 322 326 329 329 328 328 328 327 328 328 326 323 322 321 321 322 323 322 322 323 322
185 187 189 189 187 185 184 183 181 181 181 182 184 188 191 193 194 195 195 197 197 192 187 186 187 186 184 184 184 184 186 192 196 198 200 202 204 208 213 218 225 234 239 240 242 249 254 256 263 270 274 277 282 287 289 293 296 301 306 310 311 314 315 315 316 319 321 321 320 319 318 318 318 317 317 317 317 316 316 318 318 316 313 312 312
187 188 189 189 187 187 187 186 184 183 184 184 186 189 191 193 195 196 198 199 198 194 190 190 192 194 195 193 188 186 187 193 197 199 202 207 211 215 219 224 233 242 248 253 254 255 259 263 268 276 280 281 283 285 286 289 293 297 301 305 306 307 309 309 310 312 314 314 314 314 314 315 315 315 314 314 313 313 313 314 315 315 312 310 310
189 190 189 189 188 188 187 187 187 187 188 188 188 189 192 194 196 199 201 202 199 197 196 196 199 202 205 201 194 191 191 194 198 202 207 213 218 223 228 234 243 249 253 257 260 261 265 269 274 280 284 284 285 287 289 292 294 296 298 300 300 300 302 304 305 307 309 309 311 313 314 315 316 316 316 317 319 319 316 313 313 313 311 309 308
189 188 187 187 188 187 187 187 189 189 189 190 191 191 194 197 199 200 202 200 199 200 201 201 203 206 206 201 198 197 199 202 206 210 215 221 226 231 238 244 250 254 256 259 263 266 270 274 277 281 284 286 289 292 295 297 298 298 298 298 297 298 300 303 305 307 310 311 313 315 317 320 322 322 322 324 325 325 323 322 322 321 317 312 310
189 188 187 186 187 189 189 189 189 189 189 190 192 194 196 198 200 201 202 200 200 204 205 205 205 204 201 197 198 202 207 213 218 220 225 230 233 237 241 246 250 254 256 260 264 267 271 275 279 283 288 290 293 296 297 297 298 297 296 297 299 302 305 307 308 311 313 315 317 320 323 327 332 332 330 331 331 329 329 330 329 326 322 317 315
188 187 186 185 185 189 191 190 190 191 192 192 193 195 197 199 201 201 201 202 205 208 208 204 201 198 195 196 200 205 211 218 223 226 229 232 234 237 241 244 249 252 254 258 262 265 269 275 280 284 288 290 292 295 296 296 296 296 297 300 303 305 308 310 312 316 319 321 323 327 331 334 337 337 333 332 332 330 328 328 327 325 323 322 319
188 188 187 186 185 187 190 192 192 193 193 193 193 196 198 200 202 203 203 206 209 210 207 203 198 194 193 196 200 206 212 218 223 227 231 235 239 243 244 245 246 248 251 256 261 265 269 273 276 279 281 283 284 287 289 291 295 299 302 306 308 308 311 316 319 323 327 329 331 334 335 335 335 334 330 328 329 328 325 324 326 325 324 321 318
187 187 188 190 190 189 190 192 193 193 193 194 195 197 199 201 203 205 207 210 211 210 207 201 195 191 191 195 199 206 214 221 228 236 242 245 247 248 247 245 244 247 253 259 263 265 266 268 270 273 275 276 278 281 285 291 299 305 309 312 315 317 321 325 328 332 334 335 335 335 332 331 331 330 328 329 330 328 325 326 326 325 322 319 316
185 187 190 192 191 190 191 192 192 192 194 195 197 199 200 201 203 206 209 211 211 209 204 198 192 189 191 195 203 213 223 231 239 245 247 246 244 243 244 246 248 252 255 258 260 261 263 265 267 270 273 274 276 282 289 298 307 314 318 320 323 326 328 331 334 336 335 333 331 330 328 330 331 330 329 330 330 328 326 326 325 323 322 320 318
186 187 189 190 190 190 192 192 191 191 193 195 197 198 200 201 203 205 208 210 209 205 200 194 191 190 194 202 214 226 234 238 241 240 235 231 233 238 243 248 251 252 254 256 258 259 261 263 265 266 269 273 279 287 298 309 316 322 325 326 328 331 334 335 335 333 330 329 330 331 332 332 332 331 330 330 330 330 329 327 326 325 324 322 320
186 185 186 188 190 193 195 194 192 192 194 195 196 198 200 201 202 204 206 207 204 199 195 193 194 198 207 217 226 233 236 236 235 231 226 228 234 238 242 247 251 253 253 252 252 251 249 249 250 250 252 264 276 285 301 313 318 322 327 330 334 336 335 333 331 329 330 332 334 335 336 335 334 334 335 334 334 334 334 331 330 329 326 323 323
185 187 190 191 193 196 198 197 196 197 197 196 196 196 196 197 198 198 198 198 195 193 194 197 205 215 224 229 231 233 232 232 230 228 230 234 235 236 242 247 248 245 238 230 225 224 223 223 225 222 223 239 263 286 306 317 325 331 333 336 337 335 333 331 331 332 334 336 338 339 339 338 339 341 341 340 339 339 338 336 335 332 329 327 328
187 190 194 195 196 198 199 198 198 199 199 196 193 190 188 189 190 191 191 190 191 194 200 210 220 227 229 227 226 225 225 226 227 230 234 237 236 236 239 240 232 221 213 207 205 206 207 208 210 208 211 234 279 310 322 327 333 336 336 335 334 332 332 334 336 337 338 341 343 343 344 344 346 349 349 347 347 347 343 341 341 337 334 333 334
Height
781 784 787 789 792 795 798 801 804 805 806 809 813 818 820 819 819 823 824 826 827 828 830 831 833 834 835 837 838 839 841 842 843 845 846 848 849 850 852 852 852 853 854 854 855 855 855 856 855 855 855 854 854 854 853 853 852 852 852 850 850 849 847 846 843 839 837 836 834 832 830 827 824 822 819 816 813 810 808 806 803 799 796 793 790
779 782 786 789 793 795 798 801 803 805 807 809 813 819 821 820 819 822 824 826 827 828 830 831 833 834 835 837 839 840 841 843 844 846 847 849 850 851 852 853 853 854 855 855 856 857 857 857 857 857 856 856 855 855 855 854 854 853 852 852 851 850 848 846 844 841 838 836 834 833 831 829 826 823 820 817 814 811 808 805 802 800 797 794 790
778 782 785 790 794 796 799 802 804 805 808 811 814 818 820 819 819 821 823 825 827 829 830 832 833 834 836 837 839 840 842 843 845 847 848 850 851 852 853 853 854 855 856 857 858 858 858 858 859 859 858 857 857 857 856 856 855 854 853 852 851 850 849 848 846 843 840 837 836 833 831 829 826 824 822 819 816 812 809 806 803 800 797 794 790
779 783 787 791 795 798 800 803 805 806 809 812 814 817 817 818 819 821 823 825 827 829 831 832 834 835 836 838 839 841 843 844 846 848 849 851 852 853 854 854 855 856 857 858 859 860 860 860 860 860 859 859 858 858 857 856 856 855 854 853 851 850 849 848 846 844 841 839 837 836 833 831 828 826 823 820 817 814 810 807 804 801 797 794 791
781 785 788 792 796 798 799 802 805 807 809 812 813 815 816 817 819 821 823 825 827 829 831 833 834 835 836 838 840 842 844 846 847 849 850 851 852 854 855 856 857 857 858 859 860 861 861 862 862 861 861 860 860 859 858 857 856 855 854 853 852 850 849 848 846 845 843 840 838 837 835 833 830 828 825 821 818 814 811 808 805 801 798 794 791
783 786 789 792 795 796 798 801 805 807 810 811 812 814 816 817 820 822 824 826 828 830 832 833 835 836 837 839 841 843 845 847 848 850 852 852 853 855 857 858 858 859 859 860 861 862 863 863 863 862 862 861 860 860 859 858 857 856 855 854 852 851 849 848 846 845 843 841 840 838 836 834 831 829 826 822 819 815 811 808 805 802 798 795 792
784 787 790 792 793 794 798 802 805 808 810 811 812 814 816 818 820 823 824 826 828 830 832 834 835 837 838 840 842 844 845 847 849 851 853 854 855 857 858 859 860 860 861 861 862 863 864 864 863 863 862 862 861 860 860 858 857 857 855 854 853 851 849 848 846 845 843 842 841 839 837 835 833 830 827 824 821 817 813 809 805 802 799 796 793
785 787 790 792 793 795 798 802 806 809 811 812 814 815 817 819 821 823 825 826 828 830 832 834 835 838 840 842 843 845 847 848 850 853 854 855 856 858 859 861 861 861 862 863 864 864 864 864 864 863 863 862 861 861 860 859 858 857 856 855 853 851 850 848 847 845 844 843 842 841 839 836 834 831 828 824 821 818 816 813 809 805 801 798 795
786 789 791 793 796 798 799 802 807 810 811 813 815 817 819 820 822 823 825 827 829 831 833 834 836 838 841 843 845 847 848 850 852 854 855 855 857 859 860 862 862 862 863 864 865 865 865 865 864 864 863 863 862 862 861 860 859 858 857 855 853 852 851 849 848 847 846 844 843 842 840 838 835 832 829 826 824 821 819 816 813 809 805 801 797
787 790 792 794 797 799 801 804 807 809 811 813 816 818 820 821 823 825 826 828 830 832 834 836 838 840 842 844 846 849 850 852 854 855 856 856 858 860 861 862 863 864 864 865 866 866 866 865 865 865 864 864 864 863 862 861 860 859 857 855 854 853 852 851 850 849 848 846 845 844 842 840 838 836 833 830 828 825 821 818 814 811 807 802 798
787 791 793 794 796 799 802 805 807 809 812 814 816 819 821 822 824 826 828 829 831 833 835 838 840 841 843 845 848 850 852 854 855 857 857 857 859 860 862 863 864 865 865 866 866 866 866 866 866 865 865 865 865 864 863 862 861 859 858 856 855 854 853 852 852 852 851 849 848 847 845 844 842 839 837 833 830 827 823 820 816 812 808 804 799
786 790 792 794 796 798 801 804 806 809 812 814 817 819 821 823 825 827 829 831 833 835 837 839 841 843 845 847 850 852 854 856 857 858 859 859 860 861 862 864 864 865 866 866 867 867 867 867 866 866 866 866 865 865 864 863 861 860 859 858 858 857 856 855 854 854 853 852 850 849 848 846 844 841 839 835 832 829 825 822 818 815 811 807 803
785 788 791 795 797 800 802 804 806 809 812 814 817 820 822 824 826 828 829 831 834 836 838 841 843 845 847 849 851 854 855 857 858 859 860 860 861 862 863 864 865 866 866 867 867 867 867 868 868 867 867 867 866 865 864 863 862 861 861 860 859 858 858 857 856 855 855 854 853 851 850 848 846 843 841 838 834 830 826 823 820 816 813 809 806
786 790 793 796 798 801 803 805 807 809 812 815 818 821 823 824 827 828 830 832 835 837 840 842 844 847 849 850 852 855 857 858 859 860 860 861 862 863 864 865 866 867 867 868 868 868 868 868 868 868 868 867 866 865 865 864 864 863 863 862 861 860 859 858 857 856 856 855 854 853 852 850 847 845 842 839 836 832 828 825 821 818 814 811 807
788 791 793 796 798 800 802 804 807 810 813 815 819 821 823 825 827 829 831 834 836 839 841 844 846 848 850 851 853 855 857 859 860 860 861 862 863 864 865 866 867 867 868 869 869 869 869 869 869 868 868 867 867 866 865 865 865 865 864 864 863 862 861 859 858 857 856 856 855 854 852 850 848 845 842 839 836 834 831 828 824 820 816 812 808
788 791 793 796 798 800 801 804 807 810 813 816 819 821 823 825 827 830 833 835 838 841 843 845 847 849 851 852 854 856 858 860 860 861 862 863 864 865 866 867 868 869 869 869 870 870 869 869 869 869 869 868 867 867 867 867 866 866 865 865 864 864 863 861 860 859 858 856 855 854 852 850 848 845 843 840 836 834 832 829 825 821 817 812 808
789 792 794 796 797 800 802 804 807 810 813 817 819 821 823 826 828 831 834 837 840 842 844 846 848 850 851 853 855 856 858 860 861 862 863 864 865 866 867 868 869 870 870 870 870 870 870 870 870 870 869 869 869 868 868 868 867 867 866 866 866 865 864 863 862 861 859 858 856 855 853 851 848 846 843 840 837 834 832 829 825 821 817 813 810
789 792 794 796 798 801 803 805 807 810 814 817 819 822 824 826 829 832 835 838 841 843 845 847 849 851 852 854 855 856 858 860 861 862 863 865 866 867 868 869 869 870 871 871 871 870 870 870 870 870 870 870 870 870 869 869 868 868 867 867 866 866 865 864 863 862 860 859 857 855 853 851 849 846 844 841 838 835 832 829 827 824 820 817 813
789 791 793 796 799 802 804 807 809 811 814 817 820 822 824 827 830 833 836 839 842 844 846 848 850 852 853 855 856 857 858 860 862 863 864 865 866 867 868 869 870 870 871 871 871 871 871 871 871 871 871 871 871 870 870 870 869 869 868 868 867 867 866 865 864 863 861 860 858 856 854 852 850 847 845 842 838 835 833 831 828 825 822 820 817
789 792 794 797 800 802 805 808 810 812 814 817 820 823 825 828 830 833 837 840 842 845 847 848 850 852 854 855 857 858 859 861 862 863 865 866 867 868 869 869 870 870 871 871 871 872 872 872 872 871 871 871 871 871 871 871 870 870 869 869 868 868 867 866 865 863 862 860 859 857 855 852 850 848 845 842 840 837 834 832 829 827 824 821 818
789 792 794 798 801 803 806 809 811 813 815 818 821 824 826 828 831 834 837 840 843 845 847 849 851 852 854 856 857 859 860 861 863 864 865 866 867 868 869 869 870 870 871 871 872 872 872 872 872 872 872 872 872 872 872 872 871 870 870 869 869 869 868 867 866 864 862 861 859 857 855 853 850 848 846 843 841 838 835 833 830 828 826 823 820
789 792 795 798 801 803 806 809 812 815 816 818 821 824 827 829 831 834 837 840 843 845 847 849 851 852 854 856 858 859 861 862 863 864 865 866 867 868 868 869 869 870 870 871 872 872 872 873 873 873 873 873 873 873 873 872 872 871 870 870 870 869 868 867 866 864 863 861 859 857 855 853 851 849 847 844 842 839 836 834 832 829 827 824 822
789 792 795 798 801 804 807 810 812 815 817 818 820 823 826 829 832 835 837 840 843 845 847 849 851 852 854 856 858 860 861 862 864 865 866 867 867 867 868 868 869 870 871 871 872 872 872 873 873 873 873 873 873 873 873 873 872 871 871 870 870 869 869 868 866 865 863 861 859 857 855 853 852 850 847 845 843 840 838 835 833 830 828 825 822
789 792 795 798 801 804 807 810 813 815 817 819 820 823 826 829 832 834 837 840 842 845 847 849 851 853 854 856 858 860 861 863 864 865 866 867 867 867 868 868 869 870 871 871 872 872 872 873 873 874 874 874 874 874 873 873 872 871 871 870 870 869 869 868 866 864 863 861 859 857 856 854 852 851 848 846 844 841 839 836 833 831 829 826 823
789 792 795 798 801 804 807 810 813 815 817 818 820 822 825 828 831 834 837 839 842 844 846 848 850 852 854 856 858 859 861 862 864 865 866 866 867 867 868 869 869 870 871 871 872 872 872 873 874 874 874 874 874 874 873 873 872 871 871 870 870 869 869 867 866 864 863 861 860 858 856 855 853 851 849 846 844 842 839 837 834 831 829 826 824
789 792 795 798 800 803 806 810 813 815 817 819 820 822 825 827 830 833 836 839 841 843 846 848 850 852 854 855 857 859 861 862 863 864 865 866 867 867 868 869 870 870 871 871 872 872 872 873 874 874 874 875 875 874 873 873 872 871 870 870 870 869 868 867 866 865 863 862 860 859 857 855 853 851 849 846 844 843 840 837 835 832 829 826 824
788 791 795 797 800 803 806 809 812 814 817 818 820 823 825 828 830 832 835 838 840 843 845 847 849 851 853 855 857 858 860 862 863 864 864 865 866 867 868 869 869 870 871 871 871 872 873 873 874 874 875 874 874 874 873 873 872 871 871 870 870 869 868 867 866 865 864 862 861 859 857 855 853 851 849 847 846 844 841 838 836 833 830 827 825
787 791 794 797 800 803 805 808 811 814 816 818 820 823 825 828 830 832 834 836 838 841 844 846 848 850 852 854 856 858 859 861 861 862 863 864 866 866 867 868 869 870 870 871 871 872 873 874 874 875 875 874 874 874 873 873 872 871 871 870 869 868 868 867 866 865 864 862 861 859 857 855 854 852 850 848 846 844 842 839 837 834 831 828 826
787 790 793 796 799 802 805 808 810 813 815 818 820 823 825 828 830 832 834 836 838 840 842 845 847 849 851 853 854 856 858 859 860 861 862 864 865 866 867 868 868 869 870 870 871 872 873 874 874 875 875 874 874 874 873 873 872 872 871 870 869 869 868 867 866 865 864 862 861 859 858 856 854 852 850 848 847 845 842 840 837 835 832 830 827
787 790 793 796 799 802 805 807 810 812 815 818 820 823 826 828 831 833 835 837 839 841 843 844 846 848 850 852 853 855 856 857 859 861 862 863 864 865 866 867 868 868 869 870 871 872 873 874 874 874 874 874 874 873 873 872 872 871 870 870 869 868 867 867 866 865 864 862 861 860 858 857 855 853 851 849 847 845 843 840 838 835 833 831 828
786 789 792 795 798 801 804 806 809 812 815 817 820 823 826 829 832 833 836 838 840 842 844 845 847 848 850 851 853 854 856 857 859 860 862 863 864 865 866 866 867 868 869 870 871 872 873 873 873 873 873 873 873 873 873 872 871 871 870 869 869 868 867 867 866 865 863 862 861 860 858 857 855 853 852 850 847 845 843 841 838 836 834 832 829
784 788 791 794 797 800 803 805 808 811 814 817 820 823 826 829 832 834 837 839 840 842 844 845 847 848 849 851 852 854 855 857 858 860 861 862 863 864 865 866 867 868 869 870 871 872 872 873 873 873 873 872 872 872 872 872 871 870 869 869 868 867 867 866 865 864 863 862 861 860 858 857 855 853 852 850 848 845 843 841 839 837 834 832 830
783 787 790 793 797 800 802 805 808 810 813 816 819 822 825 828 831 834 836 838 840 842 843 845 846 848 849 851 852 853 855 856 858 859 861 862 863 864 864 865 866 868 869 870 871 871 872 872 872 872 872 872 872 872 871 871 870 870 869 868 868 867 867 866 865 864 863 862 860 859 858 856 855 853 851 850 848 846 843 841 839 837 835 833 830
783 785 788 791 796 799 802 804 807 810 812 815 818 821 824 827 830 832 835 837 839 841 842 844 845 847 848 850 851 853 854 856 857 859 860 861 862 863 864 865 866 867 868 869 870 871 871 871 871 871 871 871 871 871 871 870 870 869 868 867 867 866 866 865 864 863 862 861 860 858 857 856 854 852 851 849 847 846 844 842 840 838 836 834 831
784 786 788 792 795 799 802 804 806 809 812 814 817 820 823 826 829 831 833 835 837 839 841 842 844 846 847 849 850 852 854 856 857 859 860 860 861 862 863 864 865 866 867 868 869 870 870 870 870 870 870 870 870 870 870 869 869 868 867 866 866 865 865 864 863 863 861 860 859 858 856 855 853 852 850 848 847 845 843 841 840 838 836 834 832
784 786 789 792 795 798 801 803 806 808 811 814 817 820 822 825 828 830 832 834 836 838 839 841 843 845 847 848 850 851 853 855 857 858 859 860 861 861 863 864 865 866 867 867 868 869 869 869 869 869 869 869 869 869 869 868 868 867 866 865 865 864 864 863 862 862 860 859 858 856 855 854 852 851 849 848 846 844 843 841 839 837 835 833 831
783 786 789 792 795 798 800 803 805 808 810 813 816 819 822 825 827 829 831 833 835 836 838 840 842 844 846 847 849 851 853 855 857 858 858 859 860 861 862 863 864 865 866 866 867 868 868 868 868 868 868 868 868 868 868 867 866 866 865 864 864 863 863 862 861 860 859 858 857 855 854 853 851 850 848 847 845 843 842 840 838 836 834 832 830
783 785 788 791 794 797 800 802 805 807 810 813 816 818 821 824 826 828 830 831 833 835 837 838 840 843 844 846 848 850 852 854 855 856 857 858 859 860 861 862 863 864 865 865 866 867 867 867 867 867 867 867 867 867 866 866 865 865 864 863 862 862 861 860 860 859 858 857 856 854 853 851 850 849 847 845 844 842 840 838 836 834 832 830 828
784 786 789 791 794 797 799 801 804 807 809 812 814 817 820 822 825 827 829 830 832 834 835 837 839 841 843 844 846 848 851 852 853 855 856 857 858 860 861 862 862 863 864 865 865 866 866 866 866 866 866 866 865 865 865 864 864 863 863 862 861 860 860 859 858 857 857 856 854 853 851 850 848 847 845 844 842 840 838 836 834 833 831 829 827
785 787 790 792 794 796 798 800 803 805 808 810 813 815 818 821 823 825 827 829 831 832 834 836 838 840 841 843 844 846 848 850 851 853 854 856 857 858 859 860 861 862 862 863 864 864 865 865 865 865 864 864 864 864 863 863 862 862 861 861 860 859 858 857 857 856 855 853 852 851 849 848 846 844 843 842 840 838 836 834 832 830 828 826 824
782 786 789 791 794 796 798 800 802 804 806 808 811 814 817 819 822 824 825 827 829 831 833 835 836 838 840 841 843 845 847 848 850 851 853 854 856 857 858 859 860 860 861 861 862 863 863 863 863 863 862 862 862 862 861 861 860 860 859 859 858 857 856 855 854 853 852 851 849 848 847 845 844 842 840 839 837 835 833 832 830 828 826 824 822
782 785 788 791 793 795 798 800 802 804 806 808 810 813 815 818 820 822 824 826 828 830 831 833 835 837 838 841 843 845 846 848 849 850 851 853 854 855 856 857 858 858 859 860 860 861 861 861 861 861 860 860 860 859 859 859 858 857 857 856 855 854 853 853 852 851 850 848 847 846 844 843 841 840 838 836 835 833 831 830 828 826 824 822 820
781 785 787 790 792 795 797 800 801 803 805 807 809 812 814 817 819 821 822 824 826 828 830 832 833 835 837 840 842 844 846 847 848 849 850 851 852 853 854 855 856 856 857 857 858 859 859 859 859 859 858 858 857 857 856 856 855 854 854 853 852 852 851 850 849 848 847 846 845 843 842 841 839 838 836 835 833 831 830 828 826 824 822 821 819
781 785 788 790 792 795 797 799 801 803 805 807 809 811 813 816 818 820 821 823 825 826 828 830 832 834 836 838 840 842 844 845 846 847 849 850 851 852 852 853 854 854 855 855 856 857 857 857 857 856 856 855 855 854 854 853 852 852 851 850 850 849 849 848 847 846 845 844 843 842 841 839 838 837 835 833 832 830 828 826 825 823 821 819 817
780 784 787 790 792 794 796 798 800 802 804 806 808 810 812 814 816 818 820 822 823 825 827 828 830 832 834 836 838 840 842 843 844 846 847 848 849 850 850 851 852 852 853 853 854 854 855 854 854 854 853 853 852 851 851 850 849 849 849 848 848 847 846 846 845 844 844 843 842 841 840 838 837 835 834 832 830 829 827 825 824 822 820 818 816
780 783 786 788 790 792 794 796 798 800 802 804 806 808 810 812 814 816 818 820 822 824 826 827 829 831 833 835 837 839 840 842 843 844 845 846 847 847 848 849 850 850 851 851 852 852 852 852 851 851 850 850 849 849 848 848 847 847 847 846 846 846 845 844 844 843 842 842 841 840 838 837 835 834 832 831 829 828 826 824 822 820 819 817 814
780 782 784 787 789 791 792 794 796 798 800 802 804 806 809 811 813 815 818 819 821 823 824 826 828 830 832 834 836 838 839 841 842 842 843 844 844 845 846 847 847 848 848 849 849 849 849 849 848 848 848 847 847 847 846 846 846 846 845 845 845 844 844 843 843 842 841 840 839 838 837 835 834 833 831 829 828 826 824 822 821 819 817 815 813
780 782 784 786 789 791 792 793 795 796 798 800 803 805 808 810 812 815 816 818 820 822 823 825 827 829 831 834 835 837 838 839 840 840 841 841 842 843 844 844 845 845 846 846 846 846 846 846 846 846 845 845 845 845 845 845 845 845 844 844 844 843 843 842 842 841 840 839 838 837 836 834 833 831 830 828 826 825 823 821 820 818 816 814 812
779 781 783 786 788 790 792 793 795 796 798 799 801 804 806 809 811 813 815 817 819 821 823 825 827 828 830 832 834 835 837 837 838 839 839 840 840 841 841 842 842 843 843 843 844 844 844 844 844 844 844 844 844 844 844 844 844 844 843 843 843 842 842 841 840 840 839 838 837 835 834 833 831 830 828 827 825 823 822 820 818 817 815 813 811
779 781 784 786 788 790 791 793 795 796 797 799 800 802 804 807 809 812 814 816 818 820 822 824 826 828 829 830 832 833 835 836 836 837 837 838 838 839 839 839 840 840 840 841 841 842 842 842 842 842 843 843 843 843 843 843 843 843 842 842 842 841 841 840 839 838 837 836 835 834 832 831 829 828 827 825 824 822 821 819 818 816 814 812 810
779 782 784 785 787 789 791 792 794 796 797 798 800 801 803 806 808 810 813 815 817 820 822 823 825 827 828 829 831 832 833 834 834 835 835 836 836 836 837 837 837 838 839 839 840 840 841 841 841 841 842 842 842 842 842 842 842 842 841 841 841 840 839 838 837 836 835 834 833 832 831 829 828 827 825 824 823 821 820 818 817 815 814 812 810